GW1230 Weather Reports


time (UTC)temp
C
wind
direction
speed
KPH
gust
KPH
rain 1hr
cm
rain 24hr
cm
rain mn
cm
humidity
%
barometer
mb
20260503000647 21 276 1.6 3.2 0.00 0.00 0.00 55 1013.1
20260503000143 22 329 14.5 17.7 0.00 0.00 0.00 54 1013.3
20260502235640 22 297 3.2 3.2 0.00 0.00 0.00 53 1013.2
20260502235138 22 304 3.2 3.2 0.00 0.00 0.00 54 1013.2
20260502234634 22 330 1.6 1.6 0.00 0.00 0.00 55 1013.2
20260502234131 22 297 4.8 8.0 0.00 0.00 0.00 55 1013.5
20260502233627 21 355 12.9 16.1 0.00 0.00 0.00 55 1013.6
20260502233124 22 326 9.7 12.9 0.00 0.00 0.00 54 1013.6
20260502232620 22 336 11.3 12.9 0.00 0.00 0.00 55 1013.6
20260502232118 22 336 4.8 4.8 0.00 0.00 0.00 54 1013.7
20260502231614 21 300 4.8 4.8 0.00 0.00 0.00 56 1013.9
20260502231112 21 354 9.7 16.1 0.00 0.00 0.00 56 1013.6
20260502230610 22 310 12.9 17.7 0.00 0.00 0.00 54 1013.7
20260502230109 22 0 6.4 11.3 0.00 0.00 0.00 54 1014.2
20260502225603 22 338 14.5 20.9 0.00 0.00 0.00 54 1014.3
20260502225101 21 341 11.3 14.5 0.00 0.00 0.00 56 1014.1
20260502224557 22 281 17.7 20.9 0.00 0.00 0.00 55 1014.2
20260502224054 22 350 8.0 12.9 0.00 0.00 0.00 53 1014.4
20260502223552 22 355 6.4 11.3 0.00 0.00 0.00 52 1014.3
20260502223050 22 356 8.0 9.7 0.00 0.00 0.00 52 1014.5
20260502222547 22 337 3.2 4.8 0.00 0.00 0.00 50 1014.6
20260502222043 22 318 6.4 11.3 0.00 0.00 0.00 51 1014.6
20260502221539 22 347 9.7 12.9 0.00 0.00 0.00 51 1014.4
20260502221037 22 303 14.5 16.1 0.00 0.00 0.00 50 1014.5
20260502220532 22 332 8.0 17.7 0.00 0.00 0.00 48 1014.4
20260502220029 22 338 12.9 16.1 0.00 0.00 0.00 49 1014.7
20260502215526 22 358 4.8 4.8 0.00 0.00 0.00 50 1015.0
20260502215023 22 331 12.9 16.1 0.00 0.00 0.00 51 1014.8
20260502214520 22 12 4.8 8.0 0.00 0.00 0.00 52 1014.8
20260502214018 21 296 12.9 16.1 0.00 0.00 0.00 53 1014.9
20260502213514 21 344 9.7 14.5 0.00 0.00 0.00 54 1015.0
20260502213012 21 316 12.9 16.1 0.00 0.00 0.00 54 1014.9
20260502212511 22 306 12.9 20.9 0.00 0.00 0.00 52 1014.8
20260502212008 21 329 9.7 11.3 0.00 0.00 0.00 56 1014.9
20260502211503 21 316 9.7 12.9 0.00 0.00 0.00 57 1015.2
20260502211001 21 19 6.4 11.3 0.00 0.00 0.00 59 1014.9
20260502210457 21 332 14.5 20.9 0.00 0.00 0.00 60 1015.5
20260502205955 21 318 11.3 14.5 0.00 0.00 0.00 58 1015.3
20260502205451 21 354 9.7 14.5 0.00 0.00 0.00 61 1015.1
20260502204948 21 317 12.9 14.5 0.00 0.00 0.00 62 1015.1
20260502204445 21 330 14.5 17.7 0.00 0.00 0.00 61 1015.2
20260502203943 21 326 4.8 8.0 0.00 0.00 0.00 60 1015.3
20260502203440 20 336 11.3 14.5 0.00 0.00 0.00 63 1015.3
20260502202936 21 325 3.2 12.9 0.00 0.00 0.00 62 1015.2
20260502202433 20 22 3.2 8.0 0.00 0.00 0.00 64 1015.4
20260502201931 20 359 9.7 14.5 0.00 0.00 0.00 63 1015.5
20260502201427 20 330 6.4 9.7 0.00 0.00 0.00 64 1015.6
20260502200924 20 337 3.2 4.8 0.00 0.00 0.00 66 1015.6
20260502200419 20 350 9.7 9.7 0.00 0.00 0.00 67 1015.6
20260502195917 19 320 3.2 3.2 0.00 0.00 0.00 67 1015.7
20260502195414 20 303 8.0 11.3 0.00 0.00 0.00 66 1015.8
20260502194910 18 351 8.0 11.3 0.00 0.00 0.00 69 1016.1
20260502194408 18 4 8.0 11.3 0.00 0.00 0.00 70 1016.0
20260502193903 18 351 8.0 11.3 0.00 0.00 0.00 71 1015.9
20260502193401 18 7 8.0 12.9 0.00 0.00 0.00 69 1016.2
20260502192856 18 268 4.8 4.8 0.00 0.00 0.00 69 1016.2
20260502192353 18 317 6.4 9.7 0.00 0.00 0.00 69 1016.1
20260502191850 17 331 6.4 9.7 0.00 0.00 0.00 72 1016.3
20260502191348 18 318 4.8 4.8 0.00 0.00 0.00 71 1016.3
20260502190845 17 321 0.0 0.0 0.00 0.00 0.00 74 1016.1
20260502190343 17 340 11.3 12.9 0.00 0.00 0.00 74 1016.2
20260502185838 17 315 9.7 11.3 0.00 0.00 0.00 73 1016.4
20260502185334 18 30 4.8 4.8 0.00 0.00 0.00 73 1016.3
20260502184831 17 304 12.9 16.1 0.00 0.00 0.00 72 1016.2
20260502184326 18 318 1.6 1.6 0.00 0.00 0.00 71 1016.3
20260502183824 17 272 8.0 12.9 0.00 0.00 0.00 74 1016.1
20260502183320 17 334 9.7 11.3 0.00 0.00 0.00 74 1016.3
20260502182815 17 290 4.8 9.7 0.00 0.00 0.00 73 1016.2
20260502182310 18 356 4.8 8.0 0.00 0.00 0.00 71 1016.3
20260502181807 17 344 6.4 9.7 0.00 0.00 0.00 74 1016.5
20260502181306 17 313 11.3 12.9 0.00 0.00 0.00 73 1016.4
20260502180803 17 13 6.4 9.7 0.00 0.00 0.00 73 1016.3
20260502180301 17 356 4.8 8.0 0.00 0.00 0.00 73 1016.5
20260502170220 15 316 1.6 3.2 0.00 0.00 0.00 77 1016.9
20260502164207 15 64 3.2 4.8 0.00 0.00 0.00 79 1017.1
20260502163702 15 334 0.0 0.0 0.00 0.00 0.00 80 1017.1
20260502163159 14 25 3.2 3.2 0.00 0.00 0.00 81 1016.9
20260502162656 14 21 4.8 8.0 0.00 0.00 0.00 81 1017.1
20260502162153 14 25 4.8 4.8 0.00 0.00 0.00 82 1017.1
20260502161650 13 12 11.3 12.9 0.00 0.00 0.00 82 1016.7
20260502161147 13 2 3.2 3.2 0.00 0.00 0.00 83 1016.9
20260502160645 13 335 8.0 11.3 0.00 0.00 0.00 84 1017.0
20260502160144 13 334 1.6 1.6 0.00 0.00 0.00 85 1017.0
20260502152057 12 308 1.6 1.6 0.00 0.00 0.00 89 1016.6
20260502151554 12 343 0.0 0.0 0.00 0.00 0.00 90 1016.7
20260502151052 11 316 0.0 0.0 0.00 0.00 0.00 91 1016.8
20260502150549 11 318 0.0 0.0 0.00 0.00 0.00 92 1016.5
20260502130434 10 300 0.0 0.0 0.00 0.00 0.00 94 1016.8
20260502123416 10 313 0.0 0.0 0.00 0.00 0.00 93 1016.8
20260502122914 10 303 0.0 0.0 0.00 0.00 0.00 93 1016.7
20260502122410 10 300 0.0 0.0 0.00 0.00 0.00 93 1016.9
20260502121908 10 310 0.0 0.0 0.00 0.00 0.00 93 1016.6
20260502121405 10 296 0.0 0.0 0.00 0.00 0.00 93 1016.9
20260502120902 10 309 0.0 0.0 0.00 0.00 0.00 93 1016.8
20260502120358 10 322 0.0 0.0 0.00 0.00 0.00 93 1016.7
20260502115856 10 345 1.6 1.6 0.00 0.00 0.00 93 1016.8
20260502115353 10 333 1.6 1.6 0.00 0.00 0.00 93 1016.8
20260502114849 10 293 3.2 3.2 0.00 0.00 0.00 93 1016.9
20260502114346 10 305 1.6 1.6 0.00 0.00 0.00 92 1016.7
20260502113843 10 312 1.6 1.6 0.00 0.00 0.00 92 1017.0
20260502113341 10 305 0.0 0.0 0.00 0.00 0.00 92 1017.2
20260502112839 10 257 1.6 3.2 0.00 0.00 0.00 92 1017.2
20260502112336 10 297 3.2 3.2 0.00 0.00 0.00 92 1017.3
20260502111834 10 258 1.6 3.2 0.00 0.00 0.00 92 1017.2
20260502111331 10 244 4.8 4.8 0.00 0.00 0.00 92 1017.2
20260502110828 10 230 3.2 4.8 0.00 0.00 0.00 92 1017.4
20260502110326 10 271 1.6 3.2 0.00 0.00 0.00 92 1017.3
20260502105823 10 283 1.6 3.2 0.00 0.00 0.00 92 1017.0
20260502105320 10 288 0.0 1.6 0.00 0.00 0.00 92 1016.7
20260502104818 11 285 0.0 0.0 0.00 0.00 0.00 92 1016.6
20260502104315 11 277 0.0 1.6 0.00 0.00 0.00 92 1016.7
20260502103812 11 281 0.0 0.0 0.00 0.00 0.00 92 1016.5
20260502103309 11 283 0.0 0.0 0.00 0.00 0.00 92 1016.5
20260502102807 11 274 1.6 3.2 0.00 0.00 0.00 92 1016.5
20260502102306 11 249 3.2 3.2 0.00 0.00 0.00 91 1016.4
20260502101801 11 281 0.0 0.0 0.00 0.00 0.00 91 1016.5
20260502101259 11 290 3.2 4.8 0.00 0.00 0.00 91 1016.4
20260502100756 11 288 4.8 8.0 0.00 0.00 0.00 91 1016.4
20260502100255 11 296 1.6 1.6 0.00 0.00 0.00 90 1016.6
20260502091229 12 277 1.6 1.6 0.00 0.00 0.00 86 1016.8
20260502090727 12 279 0.0 0.0 0.00 0.00 0.00 86 1016.7
20260502090223 12 295 0.0 0.0 0.00 0.00 0.00 86 1016.8
20260502071119 14 43 3.2 4.8 0.00 0.00 0.00 70 1016.1
20260502070617 14 341 0.0 0.0 0.00 0.00 0.00 72 1016.4
20260502070115 14 333 0.0 0.0 0.00 0.00 0.00 72 1016.3
20260502065613 13 316 0.0 0.0 0.00 0.00 0.00 74 1016.1
20260502065110 14 309 0.0 0.0 0.00 0.00 0.00 74 1015.9
20260502064609 14 315 0.0 0.0 0.00 0.00 0.00 74 1016.1
20260502064105 14 303 0.0 0.0 0.00 0.00 0.00 74 1016.1
20260502063603 15 301 0.0 0.0 0.00 0.00 0.00 72 1016.2
20260502063101 15 311 0.0 0.0 0.00 0.00 0.00 68 1016.1
20260502062558 15 315 0.0 0.0 0.00 0.00 0.00 67 1016.1
20260502062055 15 337 0.0 0.0 0.00 0.00 0.00 66 1016.2
20260502061553 15 338 0.0 0.0 0.00 0.00 0.00 66 1016.1
20260502061050 15 13 4.8 4.8 0.00 0.00 0.00 66 1016.2
20260502060545 15 1 1.6 1.6 0.00 0.00 0.00 66 1016.0
20260502060042 15 29 3.2 3.2 0.00 0.00 0.00 66 1015.8
20260502055540 15 11 3.2 3.2 0.00 0.00 0.00 66 1016.2
20260502055038 15 334 1.6 1.6 0.00 0.00 0.00 66 1016.1
20260502054537 15 350 4.8 4.8 0.00 0.00 0.00 65 1015.9
20260502054033 15 5 1.6 1.6 0.00 0.00 0.00 65 1016.0
20260502053530 16 30 3.2 4.8 0.00 0.00 0.00 64 1015.8
20260502053028 16 6 3.2 3.2 0.00 0.00 0.00 64 1015.8
20260502052526 16 25 1.6 1.6 0.00 0.00 0.00 64 1015.8
20260502052024 16 21 4.8 4.8 0.00 0.00 0.00 63 1015.8
20260502051522 16 3 1.6 3.2 0.00 0.00 0.00 62 1015.7
20260502051020 16 28 0.0 1.6 0.00 0.00 0.00 62 1015.7
20260502050515 16 338 0.0 1.6 0.00 0.00 0.00 61 1015.7
20260502050013 16 6 1.6 3.2 0.00 0.00 0.00 60 1015.5
20260502045509 16 25 0.0 1.6 0.00 0.00 0.00 60 1015.6
20260502045006 16 3 0.0 1.6 0.00 0.00 0.00 60 1015.8
20260502044503 16 341 3.2 4.8 0.00 0.00 0.00 60 1015.6
20260502043959 17 339 1.6 1.6 0.00 0.00 0.00 60 1015.4
20260502043457 17 3 4.8 4.8 0.00 0.00 0.00 60 1015.5
20260502042956 17 335 3.2 3.2 0.00 0.00 0.00 59 1015.2
20260502042453 17 355 1.6 3.2 0.00 0.00 0.00 59 1015.4
20260502041951 17 359 4.8 8.0 0.00 0.00 0.00 59 1015.2
20260502041448 17 357 4.8 8.0 0.00 0.00 0.00 59 1015.1
20260502040945 17 338 8.0 9.7 0.00 0.00 0.00 60 1015.2
20260502040442 17 13 6.4 8.0 0.00 0.00 0.00 60 1015.1
20260502035938 17 20 1.6 3.2 0.00 0.00 0.00 60 1015.1
20260502035434 17 352 3.2 3.2 0.00 0.00 0.00 60 1015.0
20260502034932 17 52 3.2 3.2 0.00 0.00 0.00 60 1015.0
20260502034431 17 17 0.0 1.6 0.00 0.00 0.00 59 1015.1
20260502033929 17 12 1.6 1.6 0.00 0.00 0.00 59 1015.1
20260502033426 17 26 6.4 9.7 0.00 0.00 0.00 58 1014.8
20260502032922 17 35 4.8 8.0 0.00 0.00 0.00 57 1014.9
20260502032419 17 55 4.8 4.8 0.00 0.00 0.00 57 1014.9
20260502031916 17 5 8.0 9.7 0.00 0.00 0.00 56 1014.9
20260502031415 17 4 3.2 4.8 0.00 0.00 0.00 57 1014.8
20260502030913 17 14 3.2 4.8 0.00 0.00 0.00 56 1014.7
20260502030411 17 334 4.8 8.0 0.00 0.00 0.00 56 1014.3
20260502025908 17 6 1.6 3.2 0.00 0.00 0.00 57 1014.5
20260502025405 17 338 1.6 1.6 0.00 0.00 0.00 59 1014.6
20260502024903 17 17 3.2 3.2 0.00 0.00 0.00 60 1014.6
20260502024401 18 354 4.8 4.8 0.00 0.00 0.00 61 1014.3
20260502023858 18 9 8.0 9.7 0.00 0.00 0.00 61 1014.6
20260502023355 18 337 1.6 1.6 0.00 0.00 0.00 61 1014.4
20260502022853 18 353 4.8 8.0 0.00 0.00 0.00 61 1014.4
20260502022349 18 2 4.8 8.0 0.00 0.00 0.00 61 1014.4
20260502021846 18 29 6.4 8.0 0.00 0.00 0.00 62 1014.2
20260502021344 18 330 6.4 9.7 0.00 0.00 0.00 62 1014.2
20260502020841 18 6 11.3 17.7 0.00 0.00 0.00 61 1014.0
20260502020338 18 26 11.3 14.5 0.00 0.00 0.00 61 1014.5
20260502015835 18 7 6.4 9.7 0.00 0.00 0.00 61 1014.3
20260502015332 18 317 3.2 4.8 0.00 0.00 0.00 61 1014.3
20260502014829 18 355 4.8 8.0 0.00 0.00 0.00 60 1014.3
20260502014326 18 336 0.0 1.6 0.00 0.00 0.00 59 1014.2
20260502013822 18 325 4.8 4.8 0.00 0.00 0.00 59 1014.3
20260502013318 18 337 4.8 9.7 0.00 0.00 0.00 59 1014.4
20260502012815 19 2 4.8 4.8 0.00 0.00 0.00 58 1014.5
20260502012313 19 292 1.6 3.2 0.00 0.00 0.00 57 1014.4
20260502011810 18 301 0.0 0.0 0.00 0.00 0.00 59 1014.3
20260502011306 19 311 3.2 3.2 0.00 0.00 0.00 58 1014.5
20260502010803 18 335 3.2 4.8 0.00 0.00 0.00 58 1014.4
20260502010259 18 347 9.7 16.1 0.00 0.00 0.00 59 1014.5
20260502005756 18 313 19.3 22.5 0.00 0.00 0.00 58 1014.6
20260502005255 18 323 8.0 11.3 0.00 0.00 0.00 58 1014.3
20260502004751 18 292 9.7 12.9 0.00 0.00 0.00 59 1014.1
20260502004247 18 327 6.4 9.7 0.00 0.00 0.00 58 1014.4
20260502003745 18 334 8.0 14.5 0.00 0.00 0.00 58 1014.2
20260502003243 19 301 9.7 12.9 0.00 0.00 0.00 57 1014.4
20260502002738 19 299 8.0 12.9 0.00 0.00 0.00 55 1014.3
20260502002236 20 322 8.0 12.9 0.00 0.00 0.00 54 1014.4
20260502001732 20 10 16.1 22.5 0.00 0.00 0.00 52 1014.4
20260502001231 20 338 3.2 4.8 0.00 0.00 0.00 52 1014.4